This is the latest recevied weather packets stored in our database for station/object W0SS-13. If no packets are shown the sender has not sent any weather packets the latest 10 day(s).
| Time | Temp. | Humidity | Pressure | Rain* | Wind** | Luminosity | Snow |
|---|---|---|---|---|---|---|---|
| 1777561550 | 13.89° C | 61% | 1020.3 hPa | 0 mm | - | 264 W/m² | - |
| 1777561245 | 13.89° C | 61% | 1020.3 hPa | 0 mm | - | 259 W/m² | - |
| 1777560944 | 13.89° C | 60% | 1020.4 hPa | 0 mm | - | 213 W/m² | - |
| 1777560642 | 13.89° C | 61% | 1020.3 hPa | 0 mm | - | 653 W/m² | - |
| 1777560339 | 13.89° C | 67% | 1020.3 hPa | 0 mm | - | 433 W/m² | - |
| 1777560037 | 13.33° C | 68% | 1020.1 hPa | 0 mm | - | 491 W/m² | - |
| 1777559732 | 13.33° C | 70% | 1020.1 hPa | 0 mm | - | 183 W/m² | - |
| 1777559430 | 13.33° C | 70% | 1020.1 hPa | 0 mm | - | 211 W/m² | - |
| 1777559127 | 12.78° C | 72% | 1020.3 hPa | 0 mm | - | 255 W/m² | - |
| 1777558827 | 12.78° C | 71% | 1020.3 hPa | 0 mm | - | 173 W/m² | - |
| 1777558523 | 12.22° C | 71% | 1020.4 hPa | 0 mm | - | 178 W/m² | - |
| 1777558219 | 12.22° C | 71% | 1020.2 hPa | 0 mm | - | 137 W/m² | - |
| 1777557915 | 12.22° C | 70% | 1020.4 hPa | 0 mm | - | 126 W/m² | - |
| 1777557613 | 12.22° C | 74% | 1020.2 hPa | 0 mm | - | 139 W/m² | - |
| 1777557309 | 12.22° C | 74% | 1020.3 hPa | 0 mm | - | 168 W/m² | - |
| 1777557005 | 12.22° C | 74% | 1020.2 hPa | 0 mm | - | 191 W/m² | - |
| 1777556701 | 12.22° C | 73% | 1020.2 hPa | 0 mm | - | 173 W/m² | - |
| 1777556397 | 12.22° C | 74% | 1020.1 hPa | 0 mm | - | 150 W/m² | - |
| 1777556092 | 12.22° C | 74% | 1020.1 hPa | 0 mm | - | 158 W/m² | - |
| 1777555791 | 12.22° C | 72% | 1020.3 hPa | 0 mm | - | 167 W/m² | - |
| 1777555488 | 11.67° C | 75% | 1020.1 hPa | 0 mm | - | 239 W/m² | - |
| 1777555184 | 11.67° C | 78% | 1020.2 hPa | 0 mm | - | 172 W/m² | - |
| 1777554882 | 11.11° C | 78% | 1020.1 hPa | 0 mm | - | 177 W/m² | - |
| 1777554579 | 10.56° C | 79% | 1020 hPa | 0 mm | - | 151 W/m² | - |
| 1777554275 | 10.56° C | 79% | 1020.2 hPa | 0 mm | - | 119 W/m² | - |
* Rain latest hour (hover to see other rain measurements)
** Current wind speed in m/s (hover to see current wind gust speed)